timestamp,surface_pressure_avg,surface_temp_avg,battery_voltage,lat,long
2020-09-02 00:09:01+00:00,358.0079,16.83,12.89,47.84626,-54.09684
2020-09-02 00:19:01+00:00,356.2096,16.8,12.73,47.84626,-54.09684
2020-09-02 00:29:01+00:00,353.728,16.8,12.73,47.84626,-54.09684
2020-09-02 00:39:01+00:00,349.353,16.8,12.73,47.84626,-54.09684
2020-09-02 00:49:01+00:00,345.1562,16.81,12.73,47.84626,-54.09684
2020-09-02 00:59:01+00:00,341.6879,16.8,12.73,47.84626,-54.09684
2020-09-02 01:09:01+00:00,336.9647,16.8,12.73,47.84626,-54.09684
2020-09-02 01:19:01+00:00,330.0947,16.8,12.73,47.84626,-54.09684
2020-09-02 01:29:01+00:00,327.1564,16.8,12.73,47.84626,-54.09684
2020-09-02 01:39:01+00:00,321.6663,16.8,12.73,47.84626,-54.09684
2020-09-02 01:49:01+00:00,313.433,16.8,12.73,47.84626,-54.09684
2020-09-02 01:59:01+00:00,307.1914,16.8,12.73,47.84626,-54.09684
2020-09-02 02:09:01+00:00,304.3247,16.8,12.73,47.84626,-54.09684
2020-09-02 02:19:01+00:00,296.9847,16.8,12.73,47.84626,-54.09684
2020-09-02 02:29:01+00:00,285.3514,16.8,12.73,47.84626,-54.09684
2020-09-02 02:39:01+00:00,276.7264,16.8,12.73,47.84626,-54.09684
2020-09-02 02:49:01+00:00,271.2764,16.87,12.73,47.84626,-54.09684
2020-09-02 02:59:01+00:00,261.2164,17.04,12.73,47.84626,-54.09684
2020-09-02 03:09:01+00:00,248.0981,17.11,12.73,47.84626,-54.09684
2020-09-02 03:19:01+00:00,240.9397,17.16,12.73,47.84626,-54.09684
2020-09-02 03:29:01+00:00,236.3431,17.16,12.73,47.84626,-54.09684
2020-09-02 03:39:01+00:00,227.2865,17.17,12.73,47.84626,-54.09684
2020-09-02 03:49:01+00:00,217.4731,17.18,12.73,47.84626,-54.09684
2020-09-02 03:59:01+00:00,214.6231,17.18,12.73,47.84626,-54.09684
2020-09-02 04:09:01+00:00,209.9098,17.15,12.73,47.84626,-54.09684
2020-09-02 04:19:01+00:00,199.2698,17.18,12.73,47.84626,-54.09684
2020-09-02 04:29:01+00:00,192.1031,17.1,12.73,47.84626,-54.09684
2020-09-02 04:39:01+00:00,190.1065,17.1,12.73,47.84626,-54.09684
2020-09-02 04:49:01+00:00,185.3115,17.09,12.73,47.84626,-54.09684
2020-09-02 04:59:01+00:00,179.2415,17.06,12.73,47.84626,-54.09684
2020-09-02 05:09:01+00:00,177.7648,17.0,12.73,47.84626,-54.09684
2020-09-02 05:19:01+00:00,177.4131,16.99,12.73,47.84626,-54.09684
2020-09-02 05:29:01+00:00,175.5481,16.99,12.73,47.84626,-54.09684
2020-09-02 05:39:01+00:00,175.1281,17.0,12.73,47.84626,-54.09684
2020-09-02 05:49:01+00:00,178.3932,17.0,12.73,47.84626,-54.09684
2020-09-02 05:59:01+00:00,179.2631,17.0,12.73,47.84626,-54.09684
2020-09-02 06:09:01+00:00,177.9431,17.01,12.73,47.84626,-54.09684
2020-09-02 06:19:01+00:00,181.7198,17.0,12.73,47.84626,-54.09684
2020-09-02 06:29:01+00:00,187.2098,17.0,12.73,47.84626,-54.09684
2020-09-02 06:39:01+00:00,187.1331,17.0,12.73,47.84626,-54.09684
2020-09-02 06:49:01+00:00,186.7881,17.0,12.73,47.84626,-54.09684
2020-09-02 06:59:01+00:00,192.9648,17.0,12.73,47.84626,-54.09684
2020-09-02 07:09:01+00:00,199.4214,16.95,12.73,47.84626,-54.09684
2020-09-02 07:19:01+00:00,201.4681,16.9,12.65,47.84626,-54.09684
2020-09-02 07:29:01+00:00,204.1031,16.9,12.65,47.84626,-54.09684
2020-09-02 07:39:01+00:00,208.3698,16.9,12.65,47.84626,-54.09684
2020-09-02 07:49:01+00:00,210.8231,16.9,12.65,47.84626,-54.09684
2020-09-02 07:59:01+00:00,214.4748,16.9,12.65,47.84626,-54.09684
2020-09-02 08:09:01+00:00,221.5564,16.9,12.65,47.84626,-54.09684
2020-09-02 08:19:01+00:00,227.1181,16.9,12.65,47.84626,-54.09684
2020-09-02 08:29:01+00:00,230.2764,16.9,12.65,47.84626,-54.09684
2020-09-02 08:39:01+00:00,234.8431,16.89,12.65,47.84626,-54.09684
2020-09-02 08:49:01+00:00,240.2147,16.87,12.65,47.84626,-54.09684
2020-09-02 08:59:01+00:00,244.0914,16.86,12.65,47.84626,-54.09684
2020-09-02 09:09:01+00:00,248.2831,16.85,12.65,47.84626,-54.09684
2020-09-02 09:19:01+00:00,255.8031,16.85,12.73,47.84626,-54.09684
2020-09-02 09:29:01+00:00,262.1514,16.84,12.73,47.84626,-54.09684
2020-09-02 09:39:01+00:00,265.4064,16.82,12.73,47.84626,-54.09684
2020-09-02 09:49:01+00:00,274.238,16.84,12.73,47.84626,-54.09684
2020-09-02 09:59:01+00:00,285.0063,16.85,12.73,47.84626,-54.09684
2020-09-02 10:09:01+00:00,288.8597,16.87,12.73,47.84626,-54.09684
2020-09-02 10:19:01+00:00,292.2364,16.87,13.68,47.84626,-54.09684
2020-09-02 10:29:01+00:00,301.6413,16.88,13.68,47.84626,-54.09684
2020-09-02 10:39:01+00:00,310.4813,16.89,13.68,47.84626,-54.09684
2020-09-02 10:49:01+00:00,311.813,16.9,13.68,47.84626,-54.09684
2020-09-02 10:59:01+00:00,317.0997,16.9,13.68,47.84626,-54.09684
2020-09-02 11:09:01+00:00,325.373,16.87,13.68,47.84626,-54.09684
2020-09-02 11:19:01+00:00,327.0296,16.84,14.4,47.84626,-54.09684
2020-09-02 11:29:01+00:00,324.3346,16.85,14.4,47.84626,-54.09684
2020-09-02 11:39:01+00:00,327.2112,16.8,14.4,47.84626,-54.09684
2020-09-02 11:49:01+00:00,330.1029,16.8,14.4,47.84626,-54.09684
2020-09-02 11:59:01+00:00,328.4498,16.8,14.4,47.84626,-54.09684
2020-09-02 12:09:01+00:00,325.848,16.8,14.4,47.84626,-54.09684
2020-09-02 12:19:01+00:00,328.0847,16.8,14.48,47.84626,-54.09684
2020-09-02 12:29:01+00:00,328.9396,16.8,14.48,47.84626,-54.09684
2020-09-02 12:39:01+00:00,325.9447,16.8,14.48,47.84626,-54.09684
2020-09-02 12:49:01+00:00,321.5829,16.8,14.48,47.84626,-54.09684
2020-09-02 12:59:01+00:00,319.8231,16.8,14.48,47.84626,-54.09684
2020-09-02 13:09:01+00:00,313.7279,16.8,14.48,47.84626,-54.09684
2020-09-02 13:19:01+00:00,306.3713,16.8,14.48,47.84626,-54.09684
2020-09-02 13:29:01+00:00,304.0247,16.8,14.48,47.84626,-54.09684
2020-09-02 13:39:01+00:00,301.8713,16.8,14.48,47.84626,-54.09684
2020-09-02 13:49:01+00:00,295.9531,16.8,14.48,47.84626,-54.09684
2020-09-02 13:59:01+00:00,289.7114,16.8,14.48,47.84626,-54.09684
2020-09-02 14:09:01+00:00,286.7064,16.81,14.48,47.84626,-54.09684
2020-09-02 14:19:01+00:00,279.138,16.85,14.48,47.84626,-54.09684
2020-09-02 14:29:01+00:00,270.5214,16.9,14.48,47.84626,-54.09684
2020-09-02 14:39:01+00:00,264.2714,16.9,14.48,47.84626,-54.09684
2020-09-02 14:49:01+00:00,258.1898,16.89,14.48,47.84626,-54.09684
2020-09-02 14:59:01+00:00,248.068,16.87,14.48,47.84626,-54.09684
2020-09-02 15:09:01+00:00,236.5714,16.89,14.48,47.84626,-54.09684
2020-09-02 15:19:01+00:00,231.4348,16.9,14.4,47.84626,-54.09684
2020-09-02 15:29:01+00:00,225.6047,16.9,14.4,47.84626,-54.09684
2020-09-02 15:39:01+00:00,213.1581,16.9,14.4,47.84626,-54.09684
2020-09-02 15:49:01+00:00,203.9781,16.9,14.4,47.84626,-54.09684
2020-09-02 15:59:01+00:00,201.2681,16.92,14.4,47.84626,-54.09684
2020-09-02 16:09:01+00:00,194.5631,16.94,14.4,47.84626,-54.09684
2020-09-02 16:19:01+00:00,185.1231,16.98,14.24,47.84626,-54.09684
2020-09-02 16:29:01+00:00,182.5315,16.99,14.24,47.84626,-54.09684
2020-09-02 16:39:01+00:00,179.1281,17.0,14.24,47.84626,-54.09684
2020-09-02 16:49:01+00:00,169.1531,17.0,14.24,47.84626,-54.09684
2020-09-02 16:59:01+00:00,163.8232,17.0,14.24,47.84626,-54.09684
2020-09-02 17:09:01+00:00,163.2998,17.0,14.24,47.84626,-54.09684
2020-09-02 17:19:01+00:00,159.7848,17.0,14.16,47.84626,-54.09684
2020-09-02 17:29:01+00:00,158.1915,17.0,14.16,47.84626,-54.09684
2020-09-02 17:39:01+00:00,161.2748,16.99,14.16,47.84626,-54.09684
2020-09-02 17:49:01+00:00,164.2532,16.96,14.16,47.84626,-54.09684
2020-09-02 17:59:01+00:00,163.7765,16.99,14.16,47.84626,-54.09684
2020-09-02 18:09:01+00:00,164.3782,17.0,14.16,47.84626,-54.09684
2020-09-02 18:19:01+00:00,166.9032,17.06,14.0,47.84626,-54.09684
2020-09-02 18:29:01+00:00,166.2132,17.07,14.0,47.84626,-54.09684
2020-09-02 18:39:01+00:00,165.9598,17.09,14.0,47.84626,-54.09684
2020-09-02 18:49:01+00:00,168.6082,17.09,14.0,47.84626,-54.09684
2020-09-02 18:59:01+00:00,171.7815,17.11,14.0,47.84626,-54.09684
2020-09-02 19:09:01+00:00,175.6048,17.2,14.0,47.84626,-54.09684
2020-09-02 19:19:01+00:00,177.1765,17.2,13.76,47.84626,-54.09684
2020-09-02 19:29:01+00:00,182.5731,17.2,13.76,47.84626,-54.09684
2020-09-02 19:39:01+00:00,193.3348,17.1,13.76,47.84626,-54.09684
2020-09-02 19:49:01+00:00,197.5514,17.03,13.76,47.84626,-54.09684
2020-09-02 19:59:01+00:00,201.3715,17.05,13.76,47.84626,-54.09684
2020-09-02 20:09:01+00:00,209.2364,17.08,13.76,47.84626,-54.09684
2020-09-02 20:19:01+00:00,215.9681,17.08,13.6,47.84626,-54.09684
2020-09-02 20:29:01+00:00,218.3364,17.0,13.6,47.84626,-54.09684
2020-09-02 20:39:01+00:00,220.4381,17.0,13.6,47.84626,-54.09684
2020-09-02 20:49:01+00:00,226.7748,17.02,13.6,47.84626,-54.09684
2020-09-02 20:59:01+00:00,237.0498,17.03,13.6,47.84626,-54.09684
2020-09-02 21:09:01+00:00,245.8597,17.04,13.6,47.84626,-54.09684
2020-09-02 21:19:01+00:00,250.4363,17.05,13.44,47.84626,-54.09684
2020-09-02 21:29:01+00:00,258.8531,17.02,13.44,47.84626,-54.09684
2020-09-02 21:39:01+00:00,270.4447,17.05,13.44,47.84626,-54.09684
2020-09-02 21:49:01+00:00,278.993,17.09,13.44,47.84626,-54.09684
2020-09-02 21:59:01+00:00,285.0297,17.05,13.44,47.84626,-54.09684
2020-09-02 22:09:01+00:00,293.2097,17.05,13.44,47.84626,-54.09684
2020-09-02 22:19:01+00:00,299.5947,17.04,13.13,47.84626,-54.09684
2020-09-02 22:29:01+00:00,302.6697,17.03,13.13,47.84626,-54.09684
2020-09-02 22:39:01+00:00,309.643,17.02,13.13,47.84626,-54.09684
2020-09-02 22:49:01+00:00,317.7446,17.01,13.13,47.84626,-54.09684
2020-09-02 22:59:01+00:00,322.4879,17.0,13.13,47.84626,-54.09684
2020-09-02 23:09:01+00:00,324.9613,17.0,13.13,47.84626,-54.09684
2020-09-02 23:19:01+00:00,334.2764,17.0,12.81,47.84626,-54.09684
2020-09-02 23:29:01+00:00,341.5646,17.0,12.81,47.84626,-54.09684
2020-09-02 23:39:01+00:00,341.4096,17.01,12.81,47.84626,-54.09684
2020-09-02 23:49:01+00:00,342.4246,17.1,12.81,47.84626,-54.09684
2020-09-02 23:59:01+00:00,348.8197,17.14,12.81,47.84626,-54.09684
